Weather History for KIWA - February, 2013

Change the Weather History Date:

Thursday, February 21, 2013

  Actual Average (KPHX) Record (KPHX)
Temperature  
Mean Temperature 45 °F 61 °F  
Max Temperature 53 °F 72 °F 86 °F (1982)
Min Temperature 37 °F 50 °F 29 °F (1955)
Degree Days  
Heating Degree Days 20 5  
Month to date heating degree days 130  
Since 1 July heating degree days 800  
Cooling Degree Days 0 1  
Month to date cooling degree days 4  
Year to date cooling degree days 6  
Moisture  
Dew Point 36 °F    
Average Humidity 74    
Maximum Humidity 87    
Minimum Humidity 51    
Precipitation  
Precipitation 0.00 in 0.04 in 0.73 in (1973)
Month to date precipitation 0.66  
Year to date precipitation 1.57  
Snow  
Snow 0.00 in - - ()
Month to date snowfall  
Year to date snowfall  
Since 1 July snowfall  
Snow Depth -    
Sea Level Pressure  
Sea Level Pressure 30.00 in    
Wind  
Wind Speed 6 mph (ESE)    
Max Wind Speed 9 mph    
Max Gust Speed -    
Visibility 11 miles    
Events      
T = Trace of Precipitation, MM = Missing Value Source: NWS Daily Summary

Daily Weather History Graph

Daily Weather History Graph

Search for Another Location

Airport or City:

Trip Planner

Search our weather history database for the weather conditions in past years. The results will help you decide how hot, cold, wet, or windy it might be!

Date:

Astronomy

Feb. 21, 2013 Rise Set
Actual Time 7:03 AM MST 6:17 PM MST
Civil Twilight 6:38 AM MST 6:42 PM MST
Nautical Twilight 6:09 AM MST 7:11 PM MST
Astronomical Twilight 5:41 AM MST 7:39 PM MST
Moon 2:42 PM MST (2/21) 4:02 AM MST (2/21)
Length of Visible Light 12h 03m
Length of Day
11h 13m
Waxing Gibbous, 84% of the Moon is Illuminated
Feb 21
Waxing Gibbous
Feb 25
Full
Mar 4
Last Quarter
Mar 11
New
Mar 19
First Quarter

Hourly Weather History & Observations

Time (MST) Temp. Windchill Dew Point Humidity Pressure Visibility Wind Dir Wind Speed Gust Speed Precip Events Conditions
12:15 AM 37.4 °F 30.8 °F 33.8 °F 87% 29.97 in 10.0 mi ESE 9.2 mph - N/A   Clear
12:35 AM 37.4 °F 32.1 °F 33.8 °F 87% 29.97 in 10.0 mi ESE 6.9 mph - N/A   Clear
12:55 AM 37.4 °F 31.4 °F 33.8 °F 87% 29.97 in 10.0 mi ESE 8.1 mph - N/A   Clear
1:15 AM 37.4 °F 30.8 °F 33.8 °F 87% 29.97 in 10.0 mi ESE 9.2 mph - N/A   Clear
1:35 AM 37.4 °F 31.4 °F 33.8 °F 87% 29.98 in 10.0 mi ESE 8.1 mph - N/A   Clear
1:55 AM 37.4 °F 30.8 °F 33.8 °F 87% 29.99 in 10.0 mi ESE 9.2 mph - N/A   Clear
2:15 AM 37.4 °F 31.4 °F 33.8 °F 87% 29.99 in 10.0 mi ESE 8.1 mph - N/A   Clear
2:35 AM 37.4 °F 32.1 °F 33.8 °F 87% 29.99 in 10.0 mi ESE 6.9 mph - N/A   Scattered Clouds
2:55 AM 37.4 °F 32.1 °F 33.8 °F 87% 29.99 in 10.0 mi ESE 6.9 mph - N/A   Clear
3:15 AM 37.4 °F 32.1 °F 33.8 °F 87% 29.99 in 10.0 mi ESE 6.9 mph - N/A   Clear
3:35 AM 37.4 °F 32.1 °F 33.8 °F 87% 30.00 in 10.0 mi SE 6.9 mph - N/A   Clear
3:55 AM 37.4 °F 31.4 °F 33.8 °F 87% 29.99 in 10.0 mi ESE 8.1 mph - N/A   Clear
4:15 AM 41.0 °F 35.2 °F 33.8 °F 76% 30.00 in 10.0 mi ESE 9.2 mph - N/A   Clear
4:35 AM 41.0 °F 36.4 °F 33.8 °F 76% 30.00 in 10.0 mi East 6.9 mph - N/A   Clear
4:55 AM 41.0 °F 36.4 °F 33.8 °F 76% 30.00 in 10.0 mi ESE 6.9 mph - N/A   Clear
5:15 AM 41.0 °F 36.4 °F 33.8 °F 76% 30.01 in 10.0 mi ESE 6.9 mph - N/A   Clear
6:49 AM 41.0 °F 37.1 °F 35.6 °F 81% 30.01 in 20.0 mi East 5.8 mph - N/A   Mostly Cloudy
7:47 AM 41.0 °F 35.8 °F 35.6 °F 81% 30.02 in 45.0 mi East 8.1 mph - N/A   Scattered Clouds
8:47 AM 44.6 °F 40.2 °F 35.6 °F 71% 30.04 in 45.0 mi ESE 8.1 mph - N/A   Scattered Clouds
9:47 AM 46.4 °F 41.9 °F 35.6 °F 66% 30.05 in 45.0 mi ESE 9.2 mph - N/A   Partly Cloudy
10:47 AM 48.2 °F - 37.4 °F 66% 30.06 in 45.0 mi South 6.9 mph - N/A   Scattered Clouds
11:47 AM 51.8 °F - 35.6 °F 54% 30.06 in 45.0 mi SSE 6.9 mph - N/A   Scattered Clouds
12:47 PM 53.6 °F - 37.4 °F 54% 30.03 in 40.0 mi SE 8.1 mph - N/A   Scattered Clouds
1:47 PM 53.6 °F - 35.6 °F 51% 30.00 in 40.0 mi SSE 9.2 mph - N/A   Scattered Clouds
2:47 PM 53.6 °F - 35.6 °F 51% 29.98 in 30.0 mi ESE 5.8 mph - N/A   Mostly Cloudy
3:47 PM 53.6 °F - 35.6 °F 51% 29.97 in 30.0 mi ESE 4.6 mph - N/A   Mostly Cloudy
4:47 PM 53.6 °F - 35.6 °F 51% 29.97 in 30.0 mi South 3.5 mph - N/A   Overcast
5:47 PM 53.6 °F - 39.2 °F 58% 29.97 in 30.0 mi ESE 5.8 mph - N/A   Mostly Cloudy
6:47 PM 53.6 °F - 39.2 °F 58% 29.98 in 20.0 mi Variable 4.6 mph - N/A   Mostly Cloudy
7:47 PM 51.8 °F - 41.0 °F 67% 30.00 in 20.0 mi Variable 4.6 mph - N/A   Mostly Cloudy
7:55 PM 50.0 °F - 41.0 °F 71% 30.00 in 10.0 mi Calm Calm - N/A   Clear
8:15 PM 50.0 °F - 39.2 °F 66% 30.00 in 10.0 mi Calm Calm - N/A   Clear
8:35 PM 50.0 °F - 39.2 °F 66% 30.01 in 10.0 mi Calm Calm - N/A   Clear
8:47 PM 48.2 °F - 39.2 °F 71% 30.01 in 20.0 mi Calm Calm - N/A   Mostly Cloudy
8:55 PM 46.4 °F - 37.4 °F 71% 30.01 in 10.0 mi Calm Calm - N/A   Clear
9:15 PM 46.4 °F - 37.4 °F 71% 30.02 in 10.0 mi Calm Calm - N/A   Clear
9:35 PM 46.4 °F - 41.0 °F 81% 30.02 in 10.0 mi Calm Calm - N/A   Clear
9:55 PM 46.4 °F - 39.2 °F 76% 30.02 in 10.0 mi Calm Calm - N/A   Clear
10:15 PM 46.4 °F - 37.4 °F 71% 30.03 in 10.0 mi Calm Calm - N/A   Clear
10:35 PM 44.6 °F - 37.4 °F 76% 30.03 in 10.0 mi Calm Calm - N/A   Clear
10:55 PM 42.8 °F - 39.2 °F 87% 30.03 in 10.0 mi Calm Calm - N/A   Clear
11:15 PM 42.8 °F 40.1 °F 37.4 °F 81% 30.03 in 10.0 mi ESE 4.6 mph - N/A   Clear
11:35 PM 42.8 °F 41.1 °F 39.2 °F 87% 30.03 in 10.0 mi East 3.5 mph - N/A   Clear
11:55 PM 42.8 °F 41.1 °F 39.2 °F 87% 30.03 in 10.0 mi East 3.5 mph - N/A   Clear